Flag for Netherlands Weather past 2 weeks in 's-Hertogenbosch, Netherlands

Now
36 °F

Fog.


Feels Like: 29 °F
Forecast: 39 / 46 °F
Wind: 8 mph from Southwest

Location: Volkel

Current Time: Jan 28, 2015 at 12:55:41 AM

Latest Report: Jan 28, 2015 at 12:25 AM


Visibility: 4 mi

Pressure: 30.12 "Hg

Humidity: 100%

Dew point: 36 °F

Location of 's-HertogenboschLocation

Historic Weather in 's-Hertogenbosch — Graph

°F

's-Hertogenbosch temperature yesterday

Maximum temperature yesterday: 45 °F (at 1:25 PM)
Minimum temperature yesterday: 34 °F (at 10:25 PM)
Average temperature yesterday: 39 °F

Past Weeks' High & Low Weather Summary

 TemperatureHumidityPressure
High52 °F (Jan 13, 12:25 AM)100% (Jan 13, 2:55 PM)30.39 "Hg (Jan 13, 2:55 PM)
Low27 °F (Jan 17, 8:55 AM)65% (Jan 21, 2:25 PM)29.33 "Hg (Jan 15, 2:59 PM)
Average37 °F89%29.95 "Hg
* Reported Jan 12 11:25 PM — Jan 27 11:59 PM, 's-Hertogenbosch, Weather by CustomWeather, © 2014

Note: Actual official high and low records may vary slightly from our data, if they occured in-between our weather recording intervals... More about our weather records

Advertising

's-Hertogenbosch weather history for previous 24 hours

 ConditionsComfort  
Time TempWeatherWind HumidityBarometerVisibility
11:59 PM
Jan 27
36 °FFog.8 mph100%30.15 "Hg4 mi
11:25 PM34 °FFog.8 mph93%30.15 "Hg4 mi
10:55 PM36 °FFog.8 mph93%30.15 "Hg6 mi
10:25 PM34 °FFog.8 mph100%30.18 "Hg6 mi
9:55 PM36 °FChilly.7 mph93%30.18 "HgN/A
9:25 PM37 °FChilly.7 mph93%30.18 "HgN/A
8:55 PM39 °FOvercast.6 mph93%30.18 "HgN/A
8:25 PM41 °FOvercast.7 mph87%30.18 "HgN/A
7:55 PM41 °FOvercast.7 mph87%30.18 "HgN/A
7:25 PM41 °FPartly cloudy.6 mph93%30.18 "HgN/A
7:04 PM43 °FMostly cloudy.6 mph87%30.21 "HgN/A
6:55 PM43 °FOvercast.6 mph87%30.21 "HgN/A
6:25 PM43 °FMostly cloudy.6 mph81%30.18 "HgN/A
5:55 PM43 °FOvercast.7 mph81%30.18 "HgN/A
5:25 PM43 °FOvercast.6 mph87%30.18 "HgN/A
4:55 PM43 °FMostly cloudy.7 mph87%30.18 "HgN/A
4:25 PM43 °FMostly cloudy.6 mph87%30.18 "HgN/A
3:55 PM45 °FOvercast.6 mph81%30.18 "HgN/A
3:25 PM43 °FOvercast.3 mph87%30.18 "HgN/A
2:55 PM41 °FRain showers. More clouds than sun.8 mph93%30.18 "HgN/A
2:25 PM45 °FBroken clouds.8 mph81%30.18 "HgN/A
1:55 PM45 °FMostly cloudy.9 mph81%30.18 "HgN/A
1:25 PM45 °FBroken clouds.8 mph81%30.18 "HgN/A
12:55 PM43 °FBroken clouds.8 mph87%30.21 "HgN/A
12:25 PM43 °FMore clouds than sun.8 mph87%30.21 "HgN/A
11:55 AM43 °FOvercast.9 mph87%30.21 "HgN/A
11:25 AM43 °FBroken clouds.9 mph81%30.21 "HgN/A
10:55 AM41 °FScattered clouds.8 mph87%30.21 "HgN/A
10:25 AM39 °FPartly sunny.7 mph93%30.21 "HgN/A
9:56 AM37 °FPartly sunny.3 mph93%30.21 "HgN/A
9:25 AM37 °FScattered clouds.7 mph93%30.21 "HgN/A
8:55 AM36 °FPassing clouds.7 mph93%30.21 "HgN/A
8:25 AM36 °FPassing clouds.7 mph93%30.21 "HgN/A
7:55 AM36 °FPassing clouds.7 mph93%30.18 "HgN/A
7:25 AM37 °FPassing clouds.7 mph87%30.18 "HgN/A
6:55 AM37 °FPassing clouds.8 mph87%30.18 "HgN/A
6:25 AM36 °FPassing clouds.6 mph93%30.18 "HgN/A
5:55 AM36 °FChilly.7 mph93%30.18 "HgN/A
5:25 AM37 °FPassing clouds.7 mph87%30.18 "HgN/A
4:55 AM37 °FPartly cloudy.7 mph87%30.18 "HgN/A
4:25 AM37 °FPassing clouds.6 mph87%30.18 "HgN/A
3:55 AM37 °FPassing clouds.6 mph87%30.18 "HgN/A
3:25 AM37 °FPassing clouds.6 mph87%30.18 "HgN/A
2:55 AM37 °FPassing clouds.6 mph87%30.18 "HgN/A
2:25 AM37 °FChilly.6 mph87%30.15 "HgN/A
1:55 AM37 °FPartly cloudy.5 mph93%30.15 "HgN/A
1:25 AM37 °FChilly.6 mph93%30.15 "HgN/A
12:55 AM39 °FChilly.6 mph81%30.15 "HgN/A
12:25 AM39 °FChilly.7 mph87%30.15 "HgN/A
Weather by CustomWeather, © 2014

See weather overviewHow to use our weather pages